Find KUIPER-00502

NORAD ID: 68883 Int'l Des: 2026-095V Owner: kuiper Country: USA Constellation: kuiper operational
LEOCIRCULAR

Live-Position

3D-Globus wird geladen...

Über KUIPER-00502

Beschreibung wird geladen...

Nächste Überflüge

Passes for default location (London). Set your location on the main map for personalized predictions.

Höhenverlauf

Loading altitude history...

Zweizeiliger Elementsatz

1 68883U 26095V 26120.66670139 -.00010284 00000-0 -26748-3 0 9991
2 68883 51.8789 112.1608 0006103 111.4100 64.5994 15.37205827 1301
Epoch: 30. Apr. 2026 • Age: 32 hours

Aktueller Status

Höhe 472.2 km
Geschwindigkeit 7.63 km/s
Subsatellitenpunkt -41.51°S, 154.19°W
Typ internet

Most Searched